TimeCDT,TemperatureF,Dew PointF,Humidity,Sea Level PressureIn,VisibilityMPH,Wind Direction,Wind SpeedMPH,Gust SpeedMPH,PrecipitationIn,Events,Conditions,WindDirDegrees,DateUTC
12:53 AM,26.1,21.0,81,30.09,10.0,NW,8.1,-,N/A,,Overcast,310,2014-03-22 05:53:00
1:23 AM,24.1,19.0,81,30.05,10.0,Variable,4.6,-,N/A,,Overcast,0,2014-03-22 06:23:00
1:53 AM,21.9,16.0,78,30.13,10.0,Variable,5.8,-,N/A,,Overcast,0,2014-03-22 06:53:00
2:53 AM,18.0,12.0,78,30.17,10.0,Variable,6.9,-,0.00,,Overcast,0,2014-03-22 07:53:00
3:53 AM,15.1,9.0,77,30.19,5.0,Variable,6.9,-,0.00,Snow,Light Snow,0,2014-03-22 08:53:00
4:53 AM,12.0,6.1,77,30.23,5.0,Variable,4.6,-,0.00,Snow,Light Snow,0,2014-03-22 09:53:00
5:34 AM,10.0,3.9,76,30.18,10.0,Variable,3.5,-,0.00,,Overcast,0,2014-03-22 10:34:00
5:53 AM,9.0,3.0,77,30.26,10.0,Variable,5.8,-,0.00,,Overcast,0,2014-03-22 10:53:00
6:13 AM,8.1,1.9,76,30.20,10.0,Variable,4.6,-,N/A,,Scattered Clouds,0,2014-03-22 11:13:00
6:53 AM,7.0,1.0,77,30.29,10.0,Variable,5.8,-,N/A,,Scattered Clouds,0,2014-03-22 11:53:00
7:53 AM,5.0,-0.9,76,30.33,10.0,Variable,3.5,-,N/A,,Clear,0,2014-03-22 12:53:00
8:18 AM,5.0,-2.0,73,30.27,10.0,Variable,5.8,-,N/A,,Mostly Cloudy,0,2014-03-22 13:18:00
8:53 AM,6.1,-2.0,69,30.35,10.0,Variable,4.6,-,N/A,,Partly Cloudy,0,2014-03-22 13:53:00
9:53 AM,8.1,-0.9,67,30.38,10.0,Variable,3.5,-,N/A,,Clear,0,2014-03-22 14:53:00
10:53 AM,10.9,-0.0,61,30.38,10.0,Variable,4.6,-,N/A,,Clear,0,2014-03-22 15:53:00
11:53 AM,14.0,1.0,56,30.38,10.0,Variable,3.5,-,N/A,,Clear,0,2014-03-22 16:53:00
12:53 PM,15.1,1.9,56,30.38,10.0,West,8.1,-,N/A,,Partly Cloudy,280,2014-03-22 17:53:00
1:51 PM,17.6,1.4,49,30.31,10.0,Variable,5.8,-,N/A,,Mostly Cloudy,0,2014-03-22 18:51:00
1:53 PM,16.0,1.0,52,30.39,10.0,WNW,8.1,-,N/A,,Mostly Cloudy,300,2014-03-22 18:53:00
2:53 PM,18.0,1.9,50,30.39,10.0,Variable,6.9,-,N/A,,Mostly Cloudy,0,2014-03-22 19:53:00
3:53 PM,18.0,1.9,50,30.39,10.0,Variable,5.8,-,N/A,,Mostly Cloudy,0,2014-03-22 20:53:00
4:53 PM,16.0,1.0,52,30.40,10.0,Variable,5.8,-,N/A,,Partly Cloudy,0,2014-03-22 21:53:00
5:53 PM,17.1,1.0,50,30.42,10.0,Variable,3.5,-,N/A,,Mostly Cloudy,0,2014-03-22 22:53:00
6:53 PM,15.1,1.0,54,30.44,10.0,Variable,5.8,-,N/A,,Mostly Cloudy,0,2014-03-22 23:53:00
7:53 PM,12.0,1.0,61,30.46,10.0,Variable,3.5,-,N/A,,Scattered Clouds,0,2014-03-23 00:53:00
8:53 PM,10.0,-0.0,64,30.48,10.0,NW,3.5,-,N/A,,Mostly Cloudy,320,2014-03-23 01:53:00
9:53 PM,3.0,-0.9,84,30.49,10.0,Calm,Calm,-,N/A,,Clear,0,2014-03-23 02:53:00
10:53 PM,3.9,-2.0,76,30.50,10.0,WNW,3.5,-,N/A,,Clear,290,2014-03-23 03:53:00
11:53 PM,7.0,-2.0,67,30.50,10.0,Variable,3.5,-,N/A,,Clear,0,2014-03-23 04:53:00